FW3706 Weather Reports


Display with metric or nautical units.
time (UTC)temp
F
wind
direction
speed
MPH
gust
MPH
rain 1hr
in
rain 24hr
in
rain mn
in
humidity
%
barometer
mb
20260508014511 86 8 5.0 15.0 0.00 0.00 0.00 12 1010.8
20260508014009 86 10 4.0 15.0 0.00 0.00 0.00 12 1010.7
20260508013513 86 8 4.0 13.0 0.00 0.00 0.00 12 1010.7
20260508013012 86 10 6.0 15.0 0.00 0.00 0.00 12 1010.6
20260508012508 86 10 7.0 15.0 0.00 0.00 0.00 12 1010.6
20260508012007 87 8 7.0 12.0 0.00 0.00 0.00 12 1010.5
20260508011512 87 8 5.0 12.0 0.00 0.00 0.00 12 1010.4
20260508011009 87 8 5.0 14.0 0.00 0.00 0.00 12 1010.4
20260508010505 87 8 8.0 14.0 0.00 0.00 0.00 12 1010.3
20260508010010 88 35 6.0 18.0 0.00 0.00 0.00 12 1010.3
20260508005507 88 46 9.0 18.0 0.00 0.00 0.00 12 1010.2
20260508005005 88 54 4.0 15.0 0.00 0.00 0.00 12 1010.1
20260508004510 88 326 8.0 15.0 0.00 0.00 0.00 12 1010.1
20260508004011 88 288 5.0 14.0 0.00 0.00 0.00 12 1010.1
20260508003507 89 285 7.0 16.0 0.00 0.00 0.00 12 1010.1
20260508003009 89 278 7.0 16.0 0.00 0.00 0.00 12 1010.0
20260508002509 89 281 4.0 11.0 0.00 0.00 0.00 12 1010.0
20260508002008 89 282 6.0 13.0 0.00 0.00 0.00 12 1010.0
20260508001512 90 301 5.0 15.0 0.00 0.00 0.00 12 1010.0
20260508001007 90 319 3.0 15.0 0.00 0.00 0.00 12 1010.0
20260508000506 90 315 6.0 13.0 0.00 0.00 0.00 12 1009.8
20260508000010 90 236 5.0 11.0 0.00 0.00 0.00 12 1010.0
20260507235515 89 347 2.0 10.0 0.00 0.00 0.00 13 1010.0
20260507235004 90 301 6.0 10.0 0.00 0.00 0.00 12 1010.0
20260507234511 90 283 4.0 14.0 0.00 0.00 0.00 12 1010.0
20260507234008 90 323 7.0 16.0 0.00 0.00 0.00 12 1010.0
20260507233507 90 266 5.0 16.0 0.00 0.00 0.00 12 1010.0
20260507233009 91 253 4.0 11.0 0.00 0.00 0.00 12 1010.0
20260507232509 90 245 4.0 10.0 0.00 0.00 0.00 12 1009.9
20260507232008 89 252 6.0 13.0 0.00 0.00 0.00 13 1010.0
20260507231508 90 279 7.0 13.0 0.00 0.00 0.00 12 1009.9
20260507231007 91 296 2.0 12.0 0.00 0.00 0.00 12 1009.9
20260507230506 91 319 1.0 14.0 0.00 0.00 0.00 12 1009.9
20260507230013 91 338 1.0 14.0 0.00 0.00 0.00 12 1010.1
20260507225508 91 319 5.0 13.0 0.00 0.00 0.00 12 1010.1
20260507225005 91 316 7.0 15.0 0.00 0.00 0.00 12 1010.2
20260507224513 91 354 2.0 15.0 0.00 0.00 0.00 12 1010.2
20260507224007 91 325 1.0 12.0 0.00 0.00 0.00 12 1010.2
20260507223506 90 303 5.0 13.0 0.00 0.00 0.00 12 1010.2
20260507223012 89 314 5.0 13.0 0.00 0.00 0.00 13 1010.2
20260507222509 88 3 6.0 16.0 0.00 0.00 0.00 13 1010.2
20260507222004 89 257 8.0 16.0 0.00 0.00 0.00 13 1010.3
20260507221511 90 288 4.0 8.0 0.00 0.00 0.00 13 1010.4
20260507221008 91 311 2.0 6.0 0.00 0.00 0.00 12 1010.4
20260507220507 91 246 0.0 6.0 0.00 0.00 0.00 12 1010.4
20260507220009 90 124 0.0 7.0 0.00 0.00 0.00 13 1010.5
20260507215508 88 33 3.0 7.0 0.00 0.00 0.00 13 1010.8
20260507215005 88 75 2.0 6.0 0.00 0.00 0.00 13 1011.0
20260507214520 89 53 1.0 12.0 0.00 0.00 0.00 12 1010.9
20260507214009 89 13 1.0 12.0 0.00 0.00 0.00 12 1011.0
20260507213506 87 360 5.0 12.0 0.00 0.00 0.00 13 1011.1
20260507213016 88 1 6.0 14.0 0.00 0.00 0.00 13 1011.1
20260507212508 88 309 6.0 14.0 0.00 0.00 0.00 12 1011.0
20260507212005 89 359 7.0 14.0 0.00 0.00 0.00 12 1011.2
20260507211513 89 229 3.0 12.0 0.00 0.00 0.00 11 1011.2
20260507211008 91 339 4.0 12.0 0.00 0.00 0.00 11 1011.2
20260507210509 90 266 4.0 12.0 0.00 0.00 0.00 11 1011.2
20260507210029 91 63 1.0 10.0 0.00 0.00 0.00 11 1011.2
20260507205509 90 226 2.0 10.0 0.00 0.00 0.00 12 1011.3
20260507205007 91 232 3.0 10.0 0.00 0.00 0.00 11 1011.3
20260507204527 89 184 3.0 11.0 0.00 0.00 0.00 12 1011.4
20260507204007 88 146 2.0 11.0 0.00 0.00 0.00 12 1011.5
20260507203507 89 254 1.0 10.0 0.00 0.00 0.00 12 1011.7
20260507203028 88 271 2.0 10.0 0.00 0.00 0.00 12 1011.8
20260507202508 89 253 3.0 12.0 0.00 0.00 0.00 12 1011.8
20260507202010 89 285 6.0 14.0 0.00 0.00 0.00 12 1011.9
20260507201528 87 327 5.0 14.0 0.00 0.00 0.00 12 1012.0
20260507201007 88 309 4.0 11.0 0.00 0.00 0.00 12 1012.0
20260507200507 87 250 4.0 11.0 0.00 0.00 0.00 12 1012.0
20260507200025 87 326 2.0 11.0 0.00 0.00 0.00 12 1012.2
20260507195507 87 27 3.0 8.0 0.00 0.00 0.00 12 1012.2
20260507195004 87 6 3.0 9.0 0.00 0.00 0.00 13 1012.3
20260507194526 87 4 3.0 10.0 0.00 0.00 0.00 12 1012.4
20260507194011 87 1 3.0 10.0 0.00 0.00 0.00 13 1012.4
20260507193511 88 313 2.0 7.0 0.00 0.00 0.00 12 1012.4
20260507193029 88 344 0.0 8.0 0.00 0.00 0.00 12 1012.5
20260507192509 87 236 2.0 8.0 0.00 0.00 0.00 12 1012.6
20260507192007 87 281 4.0 7.0 0.00 0.00 0.00 13 1012.7
20260507191528 88 290 2.0 5.0 0.00 0.00 0.00 14 1012.7
20260507191007 86 230 1.0 6.0 0.00 0.00 0.00 14 1012.7
20260507190507 86 248 1.0 8.0 0.00 0.00 0.00 14 1012.8
20260507190027 86 269 4.0 8.0 0.00 0.00 0.00 15 1013.0
20260507185506 87 322 1.0 6.0 0.00 0.00 0.00 14 1013.1
20260507185005 87 281 1.0 6.0 0.00 0.00 0.00 15 1013.2
20260507184528 85 360 2.0 6.0 0.00 0.00 0.00 15 1013.3
20260507184008 85 10 2.0 6.0 0.00 0.00 0.00 15 1013.3
20260507183503 85 2 2.0 6.0 0.00 0.00 0.00 16 1013.4
20260507183028 84 12 1.0 6.0 0.00 0.00 0.00 16 1013.5
20260507182510 84 12 2.0 5.0 0.00 0.00 0.00 17 1013.5
20260507182011 84 32 0.0 5.0 0.00 0.00 0.00 17 1013.7
20260507181525 83 13 1.0 6.0 0.00 0.00 0.00 17 1013.9
20260507181009 83 52 2.0 6.0 0.00 0.00 0.00 18 1014.0
20260507180504 82 13 1.0 7.0 0.00 0.00 0.00 17 1014.1
20260507180010 82 34 2.0 7.0 0.00 0.00 0.00 18 1014.2
20260507175502 83 360 3.0 7.0 0.00 0.00 0.00 18 1014.2
20260507175004 82 29 0.0 5.0 0.00 0.00 0.00 19 1014.2
20260507174511 81 37 2.0 5.0 0.00 0.00 0.00 19 1014.2
20260507174004 81 40 1.0 5.0 0.00 0.00 0.00 19 1014.3
20260507173506 80 29 0.0 3.0 0.00 0.00 0.00 19 1014.4
20260507173024 81 23 0.0 3.0 0.00 0.00 0.00 19 1014.4
20260507172504 80 8 0.0 4.0 0.00 0.00 0.00 19 1014.5
20260507172003 80 21 1.0 4.0 0.00 0.00 0.00 19 1014.5
20260507171513 80 13 1.0 4.0 0.00 0.00 0.00 19 1014.5
20260507171005 80 181 0.0 2.0 0.00 0.00 0.00 20 1014.5
20260507170504 79 168 0.0 3.0 0.00 0.00 0.00 20 1014.5
20260507170008 79 105 0.0 3.0 0.00 0.00 0.00 21 1014.6
20260507165501 78 360 0.0 3.0 0.00 0.00 0.00 21 1014.7
20260507165004 77 167 1.0 4.0 0.00 0.00 0.00 22 1014.7
20260507164508 77 360 1.0 4.0 0.00 0.00 0.00 21 1014.7
20260507164001 76 167 1.0 4.0 0.00 0.00 0.00 22 1014.7
20260507163505 76 176 2.0 4.0 0.00 0.00 0.00 23 1014.8
20260507163008 76 360 0.0 3.0 0.00 0.00 0.00 23 1014.9
20260507162502 75 360 1.0 3.0 0.00 0.00 0.00 24 1014.9
20260507162006 74 360 0.0 5.0 0.00 0.00 0.00 24 1014.9
20260507161519 74 360 1.0 5.0 0.00 0.00 0.00 25 1015.0
20260507161001 74 360 1.0 4.0 0.00 0.00 0.00 24 1015.1
20260507160508 74 360 2.0 4.0 0.00 0.00 0.00 24 1015.1
20260507160010 73 360 0.0 4.0 0.00 0.00 0.00 25 1015.1
20260507155501 73 134 0.0 4.0 0.00 0.00 0.00 25 1015.1
20260507155004 72 8 1.0 4.0 0.00 0.00 0.00 26 1015.2
20260507154510 72 93 1.0 3.0 0.00 0.00 0.00 26 1015.2
20260507154001 71 360 0.0 4.0 0.00 0.00 0.00 28 1015.3
20260507153506 71 360 1.0 4.0 0.00 0.00 0.00 28 1015.3
20260507153011 70 360 1.0 4.0 0.00 0.00 0.00 29 1015.3
20260507152501 70 130 1.0 4.0 0.00 0.00 0.00 28 1015.3
20260507152005 70 360 2.0 4.0 0.00 0.00 0.00 29 1015.4
20260507151508 69 129 1.0 4.0 0.00 0.00 0.00 31 1015.4
20260507151001 68 360 2.0 4.0 0.00 0.00 0.00 32 1015.4
20260507150514 67 124 0.0 4.0 0.00 0.00 0.00 34 1015.5
20260507150010 67 121 2.0 4.0 0.00 0.00 0.00 35 1015.5
20260507145504 66 11 1.0 4.0 0.00 0.00 0.00 36 1015.5
20260507145004 66 360 1.0 4.0 0.00 0.00 0.00 37 1015.5
20260507144513 65 12 2.0 5.0 0.00 0.00 0.00 37 1015.5
20260507144005 65 11 3.0 5.0 0.00 0.00 0.00 37 1015.5
20260507143505 64 360 1.0 5.0 0.00 0.00 0.00 38 1015.6
20260507143009 64 11 1.0 5.0 0.00 0.00 0.00 38 1015.6
20260507142505 63 360 1.0 5.0 0.00 0.00 0.00 38 1015.5
20260507142010 63 360 2.0 5.0 0.00 0.00 0.00 39 1015.5
20260507141509 62 360 0.0 5.0 0.00 0.00 0.00 40 1015.5
20260507141006 62 360 2.0 5.0 0.00 0.00 0.00 40 1015.4
20260507140506 62 11 2.0 5.0 0.00 0.00 0.00 41 1015.5
20260507140009 61 360 1.0 6.0 0.00 0.00 0.00 42 1015.5
20260507135504 61 11 2.0 6.0 0.00 0.00 0.00 41 1015.5
20260507135004 61 360 0.0 4.0 0.00 0.00 0.00 42 1015.5
20260507134508 61 360 0.0 4.0 0.00 0.00 0.00 43 1015.5
20260507134007 60 360 1.0 4.0 0.00 0.00 0.00 43 1015.5
20260507133504 60 360 0.0 4.0 0.00 0.00 0.00 44 1015.4
20260507133010 59 360 1.0 5.0 0.00 0.00 0.00 44 1015.4
20260507132506 59 360 1.0 5.0 0.00 0.00 0.00 44 1015.4
20260507132005 58 360 1.0 4.0 0.00 0.00 0.00 45 1015.3
20260507131508 58 6 2.0 4.0 0.00 0.00 0.00 46 1015.3
20260507131009 57 7 2.0 4.0 0.00 0.00 0.00 47 1015.2
20260507130510 56 7 0.0 3.0 0.00 0.00 0.00 48 1015.1
20260507130010 56 8 0.0 2.0 0.00 0.00 0.00 48 1015.1
20260507125508 56 10 0.0 2.0 0.00 0.00 0.00 47 1015.0
20260507125004 56 11 0.0 0.0 0.00 0.00 0.00 46 1015.0
20260507124510 57 10 0.0 1.0 0.00 0.00 0.00 45 1014.9
20260507124009 57 11 0.0 1.0 0.00 0.00 0.00 45 1014.9
20260507123508 57 9 0.0 1.0 0.00 0.00 0.00 45 1014.9
20260507123011 57 11 0.0 2.0 0.00 0.00 0.00 45 1014.9
20260507122509 57 8 0.0 2.0 0.00 0.00 0.00 46 1014.8
20260507122008 57 11 0.0 3.0 0.00 0.00 0.00 46 1014.9
20260507121510 57 8 0.0 3.0 0.00 0.00 0.00 46 1014.9
20260507121007 57 360 0.0 1.0 0.00 0.00 0.00 46 1014.9
20260507120508 58 360 0.0 4.0 0.00 0.00 0.00 46 1014.9
20260507120010 58 11 1.0 5.0 0.00 0.00 0.00 46 1014.9
20260507115508 58 360 1.0 5.0 0.00 0.00 0.00 46 1015.0
20260507115015 57 360 2.0 5.0 0.00 0.00 0.00 46 1015.1
20260507114512 57 360 1.0 5.0 0.00 0.00 0.00 47 1015.1
20260507114008 57 360 1.0 5.0 0.00 0.00 0.00 47 1015.0
20260507113504 57 360 3.0 6.0 0.00 0.00 0.00 47 1015.0
20260507113014 57 360 1.0 6.0 0.00 0.00 0.00 47 1015.0
20260507112513 57 11 2.0 6.0 0.00 0.00 0.00 48 1015.0
20260507112008 56 10 1.0 4.0 0.00 0.00 0.00 50 1015.0
20260507111517 56 7 0.0 4.0 0.00 0.00 0.00 50 1015.0
20260507111008 56 9 0.0 3.0 0.00 0.00 0.00 51 1015.0
20260507110508 56 9 0.0 3.0 0.00 0.00 0.00 52 1015.0
20260507110011 56 8 0.0 2.0 0.00 0.00 0.00 53 1014.9
20260507105507 56 7 0.0 2.0 0.00 0.00 0.00 52 1014.9
20260507105004 56 8 0.0 0.0 0.00 0.00 0.00 52 1014.9
20260507104510 56 7 0.0 0.0 0.00 0.00 0.00 51 1014.8
20260507104012 56 360 0.0 0.0 0.00 0.00 0.00 51 1014.7
20260507103508 57 11 0.0 0.0 0.00 0.00 0.00 51 1014.7
20260507103008 57 8 0.0 0.0 0.00 0.00 0.00 50 1014.7
20260507102507 57 8 0.0 0.0 0.00 0.00 0.00 49 1014.7
20260507102007 57 9 0.0 0.0 0.00 0.00 0.00 49 1014.9
20260507101524 58 7 0.0 0.0 0.00 0.00 0.00 47 1014.9
20260507101009 58 8 0.0 0.0 0.00 0.00 0.00 46 1014.9
20260507100506 58 8 0.0 0.0 0.00 0.00 0.00 46 1014.9
20260507100021 59 7 0.0 0.0 0.00 0.00 0.00 45 1015.0
20260507095508 59 9 0.0 0.0 0.00 0.00 0.00 45 1014.9
20260507095010 59 360 0.0 0.0 0.00 0.00 0.00 45 1015.0
20260507094529 59 9 0.0 0.0 0.00 0.00 0.00 45 1015.0
20260507094007 59 10 0.0 0.0 0.00 0.00 0.00 44 1015.0
20260507093503 59 9 0.0 0.0 0.00 0.00 0.00 44 1015.0
20260507093032 60 7 0.0 0.0 0.00 0.00 0.00 44 1015.0
20260507092508 60 8 0.0 2.0 0.00 0.00 0.00 43 1015.0
20260507092010 60 6 0.0 2.0 0.00 0.00 0.00 43 1015.1
20260507091528 60 6 0.0 1.0 0.00 0.00 0.00 44 1015.1
20260507091014 60 11 0.0 1.0 0.00 0.00 0.00 44 1015.2
20260507090507 60 8 0.0 1.0 0.00 0.00 0.00 44 1015.2
20260507090016 60 360 0.0 0.0 0.00 0.00 0.00 44 1015.3
20260507085505 60 9 0.0 2.0 0.00 0.00 0.00 43 1015.2
20260507085006 60 10 0.0 2.0 0.00 0.00 0.00 42 1015.2
20260507084507 61 9 0.0 1.0 0.00 0.00 0.00 41 1015.2
20260507084009 61 9 0.0 1.0 0.00 0.00 0.00 40 1015.2
20260507083507 61 11 0.0 0.0 0.00 0.00 0.00 39 1015.2
20260507083010 62 11 0.0 0.0 0.00 0.00 0.00 39 1015.2
20260507082508 62 8 0.0 0.0 0.00 0.00 0.00 38 1015.2
20260507082005 62 6 0.0 0.0 0.00 0.00 0.00 37 1015.3
20260507081519 63 8 0.0 0.0 0.00 0.00 0.00 37 1015.3
20260507081007 63 360 0.0 0.0 0.00 0.00 0.00 36 1015.3
20260507080506 63 7 0.0 0.0 0.00 0.00 0.00 36 1015.3
20260507080010 64 360 0.0 0.0 0.00 0.00 0.00 36 1015.3
20260507075509 64 6 0.0 4.0 0.00 0.00 0.00 35 1015.3
20260507075009 64 8 0.0 4.0 0.00 0.00 0.00 35 1015.2
20260507074508 64 7 0.0 3.0 0.00 0.00 0.00 35 1015.2
20260507074010 64 360 0.0 3.0 0.00 0.00 0.00 35 1015.2
20260507073506 64 360 0.0 2.0 0.00 0.00 0.00 35 1015.2
20260507073009 64 360 0.0 0.0 0.00 0.00 0.00 34 1015.3
20260507072507 65 360 0.0 0.0 0.00 0.00 0.00 33 1015.3
20260507072008 65 360 0.0 0.0 0.00 0.00 0.00 33 1015.3
20260507071510 65 360 0.0 0.0 0.00 0.00 0.00 33 1015.3
20260507071008 65 360 0.0 3.0 0.00 0.00 0.00 33 1015.2
20260507070506 66 360 0.0 5.0 0.00 0.00 0.00 32 1015.2
20260507070012 66 360 1.0 7.0 0.00 0.00 0.00 32 1015.2
20260507065507 67 360 1.0 7.0 0.00 0.00 0.00 31 1015.2
20260507065004 67 360 3.0 7.0 0.00 0.00 0.00 29 1015.3
20260507064506 68 360 2.0 5.0 0.00 0.00 0.00 28 1015.3
20260507064010 68 360 1.0 5.0 0.00 0.00 0.00 28 1015.3
20260507063505 68 360 1.0 5.0 0.00 0.00 0.00 28 1015.2
20260507063013 68 360 2.0 5.0 0.00 0.00 0.00 27 1015.1
20260507062508 68 360 0.0 5.0 0.00 0.00 0.00 28 1015.1
20260507062006 68 360 2.0 5.0 0.00 0.00 0.00 28 1015.1
20260507061511 68 11 0.0 5.0 0.00 0.00 0.00 28 1015.1
20260507061007 68 360 1.0 5.0 0.00 0.00 0.00 27 1015.1
20260507060503 68 360 1.0 5.0 0.00 0.00 0.00 27 1015.0
20260507060009 68 360 2.0 5.0 0.00 0.00 0.00 27 1015.0
20260507055512 68 360 2.0 5.0 0.00 0.00 0.00 27 1015.0
20260507055004 69 360 2.0 5.0 0.00 0.00 0.00 26 1015.0
20260507054511 69 360 1.0 5.0 0.00 0.00 0.00 26 1015.1
20260507054010 70 360 2.0 6.0 0.00 0.00 0.00 25 1015.0
20260507053506 70 360 2.0 7.0 0.00 0.00 0.00 25 1015.0
20260507053010 70 360 2.0 7.0 0.00 0.00 0.00 25 1015.0
20260507052509 70 360 1.0 6.0 0.00 0.00 0.00 24 1015.0
20260507052010 71 360 2.0 6.0 0.00 0.00 0.00 24 1015.0
20260507051526 71 360 2.0 7.0 0.00 0.00 0.00 24 1014.9
20260507051002 71 10 2.0 7.0 0.00 0.00 0.00 24 1015.0
20260507050505 71 360 3.0 8.0 0.00 0.00 0.00 24 1014.9
20260507050009 71 360 3.0 8.0 0.00 0.00 0.00 24 1014.9
20260507045507 71 360 4.0 9.0 0.00 0.00 0.00 23 1014.9
20260507045004 71 360 2.0 9.0 0.00 0.00 0.00 23 1014.8
20260507044529 71 360 3.0 9.0 0.00 0.00 0.00 23 1014.9
20260507044008 71 360 5.0 11.0 0.00 0.00 0.00 23 1014.8
20260507043504 71 360 3.0 11.0 0.00 0.00 0.00 23 1014.8
20260507043008 70 360 4.0 9.0 0.00 0.00 0.00 24 1014.8
20260507042510 70 360 2.0 8.0 0.00 0.00 0.00 24 1014.7
20260507042006 70 360 1.0 8.0 0.00 0.00 0.00 24 1014.7
20260507041510 70 360 4.0 8.0 0.00 0.00 0.00 24 1014.9
20260507041008 70 10 3.0 7.0 0.00 0.00 0.00 24 1014.7
20260507040506 70 10 3.0 7.0 0.00 0.00 0.00 23 1014.6
20260507040008 70 10 3.0 7.0 0.00 0.00 0.00 23 1014.5
20260507035507 71 11 1.0 7.0 0.00 0.00 0.00 23 1014.5
20260507035004 71 11 3.0 7.0 0.00 0.00 0.00 23 1014.5
20260507034509 71 11 3.0 7.0 0.00 0.00 0.00 23 1014.4
20260507034009 71 11 1.0 6.0 0.00 0.00 0.00 23 1014.4
20260507033508 71 360 2.0 6.0 0.00 0.00 0.00 23 1014.4
20260507033006 71 11 0.0 6.0 0.00 0.00 0.00 24 1014.3
20260507032509 72 10 1.0 6.0 0.00 0.00 0.00 23 1014.2
20260507032008 72 360 0.0 5.0 0.00 0.00 0.00 23 1014.1
20260507031509 72 360 2.0 6.0 0.00 0.00 0.00 22 1014.1
20260507031010 72 360 3.0 6.0 0.00 0.00 0.00 22 1014.0
20260507030511 73 360 3.0 6.0 0.00 0.00 0.00 21 1014.0
20260507030007 73 360 2.0 6.0 0.00 0.00 0.00 21 1013.9
20260507025507 73 360 2.0 6.0 0.00 0.00 0.00 21 1013.8
20260507025003 73 360 1.0 6.0 0.00 0.00 0.00 21 1013.8
20260507024507 74 360 3.0 6.0 0.00 0.00 0.00 20 1013.7
20260507024009 74 360 2.0 6.0 0.00 0.00 0.00 20 1013.7
20260507023504 74 360 2.0 6.0 0.00 0.00 0.00 20 1013.8
20260507023006 74 360 2.0 10.0 0.00 0.00 0.00 20 1013.7
20260507022507 74 360 3.0 10.0 0.00 0.00 0.00 19 1013.6
20260507022006 75 360 2.0 10.0 0.00 0.00 0.00 19 1013.5
20260507021516 75 360 4.0 10.0 0.00 0.00 0.00 19 1013.5
20260507021014 75 360 2.0 8.0 0.00 0.00 0.00 19 1013.4
20260507020505 76 360 2.0 8.0 0.00 0.00 0.00 19 1013.4
20260507020010 76 360 3.0 9.0 0.00 0.00 0.00 19 1013.5
20260507015508 76 360 2.0 9.0 0.00 0.00 0.00 18 1013.4
20260507015007 77 360 5.0 9.0 0.00 0.00 0.00 18 1013.4